Wind_Speed
26 26 31 34 36 32 31 30 24 22 20 19 20 21 20 21 25 23 23 27 27 28 24 21 20 16 19 21 23 23 21 21 21 20 19 17 16 15 13 11 11 12 13 13 13 12 11 10 9 8 7 8 7 6 7 6 5 3 3 3 3 3 4 6 8 10 11 12 12 12 11 11 11 12 12 12 12 12 13 14 12 11 11 10 10 11
25 30 35 34 34 31 29 29 24 23 25 25 23 22 20 21 22 21 25 30 29 28 26 22 21 21 22 22 22 22 24 25 22 21 18 15 15 14 12 11 12 13 13 13 13 12 12 11 10 10 9 9 7 6 5 3 2 1 1 1 3 4 5 7 9 10 11 12 13 13 12 11 11 11 12 11 11 10 10 10 10 11 11 11 12 13
29 32 35 32 31 28 25 26 25 25 28 29 26 23 21 21 22 21 24 33 30 30 29 24 25 26 24 23 20 17 22 25 20 20 19 15 15 14 12 11 11 13 13 13 14 14 14 12 10 10 9 8 6 4 2 0 1 1 2 4 6 6 7 9 10 11 12 13 14 13 13 12 11 11 11 11 11 9 8 8 8 9 11 13 14 16
34 32 31 29 28 26 24 24 25 26 29 29 27 26 24 21 24 22 24 36 33 30 31 29 29 28 24 25 22 17 17 20 19 19 19 18 17 14 13 12 10 12 13 13 16 16 15 13 12 11 8 7 5 4 3 3 3 3 5 6 8 9 10 10 11 12 12 13 13 13 13 13 12 11 10 10 11 10 9 8 8 8 11 13 15 17
33 30 27 26 25 26 27 26 27 28 29 29 28 28 25 22 23 20 29 40 30 24 29 33 29 22 23 26 24 22 18 19 20 19 19 19 19 16 15 14 11 12 12 14 17 17 16 15 13 12 9 7 6 6 6 6 6 6 7 9 10 11 12 12 13 13 14 14 13 13 13 13 12 11 10 10 10 11 10 10 10 9 11 13 16 18
29 25 24 26 26 27 29 29 30 30 29 30 28 28 27 23 21 16 30 40 28 21 26 32 21 10 17 26 26 29 25 23 22 21 21 20 19 18 16 16 14 13 13 15 17 17 16 15 13 12 11 9 9 9 9 8 9 9 10 11 12 13 13 14 14 14 15 15 14 13 13 14 13 12 11 11 10 11 12 12 13 13 13 14 17 19
27 22 21 25 28 29 30 31 31 29 30 31 29 26 25 25 23 17 20 36 32 25 25 31 22 9 12 22 25 30 29 28 28 25 25 24 23 21 19 18 17 16 15 16 17 17 16 15 13 12 12 12 12 12 11 11 11 11 11 13 13 14 14 14 14 14 14 14 13 13 14 15 14 13 12 12 12 13 13 14 15 15 15 16 17 18
30 26 23 26 29 31 33 33 31 29 29 31 26 22 22 26 26 17 13 29 34 29 28 29 28 18 16 24 27 29 28 27 30 30 29 28 27 25 23 21 20 18 17 17 16 16 16 15 14 13 13 14 14 13 13 12 12 12 13 14 14 14 14 14 13 13 13 13 13 14 15 16 16 15 14 14 14 15 15 15 16 16 16 16 15 15
30 31 28 28 30 33 35 34 31 28 29 29 23 20 22 24 24 17 16 26 33 29 28 30 30 17 15 28 31 29 30 28 31 32 30 30 28 27 26 24 22 20 19 19 17 17 17 17 16 16 16 16 15 14 14 13 13 13 14 14 14 14 13 13 12 12 12 13 14 15 17 18 18 17 16 15 16 16 16 16 16 15 14 13 13 13
26 31 29 28 31 33 34 31 30 29 28 27 21 20 21 20 21 18 14 21 29 22 22 31 33 14 8 27 35 31 33 32 31 30 28 30 29 28 28 27 25 23 21 21 20 20 19 19 19 18 18 17 17 16 15 14 14 13 15 15 13 12 12 12 12 12 13 14 16 17 19 19 18 17 16 15 16 17 17 17 15 13 12 11 12 14
24 27 28 29 31 31 30 29 29 30 26 24 23 23 22 20 22 18 14 15 14 13 22 32 35 17 6 24 38 34 33 32 30 29 29 31 29 28 28 28 27 25 23 24 23 22 22 22 22 20 20 19 19 18 16 15 15 14 14 13 11 10 11 11 12 13 14 16 18 19 19 18 16 15 15 15 16 16 17 15 13 11 11 13 14 14
26 26 29 31 30 28 28 29 29 28 25 24 27 27 22 20 21 16 15 14 4 7 22 31 32 18 4 18 34 33 30 29 27 27 28 29 29 28 27 27 27 25 25 24 24 23 23 24 25 23 21 21 21 19 17 16 15 14 12 10 9 10 11 12 13 15 17 18 20 20 19 17 16 15 14 14 15 15 15 13 11 11 13 14 15 15
32 29 29 30 29 28 27 29 29 29 29 27 29 29 18 10 11 10 8 7 3 7 20 29 26 12 4 14 28 29 25 24 24 24 23 24 26 27 26 26 26 25 24 24 24 23 23 24 25 25 23 21 20 18 16 16 14 13 11 9 9 11 12 13 15 16 18 19 20 19 18 17 16 15 14 13 13 13 12 12 12 13 14 15 16 16
30 28 28 31 32 31 32 31 31 34 34 31 32 30 16 4 4 5 2 3 1 5 20 29 21 8 8 13 23 28 23 20 23 24 22 21 22 23 25 26 26 24 24 24 24 23 22 23 24 24 22 21 18 17 16 15 13 11 9 9 11 13 14 15 16 16 18 19 18 18 17 15 14 13 13 13 12 12 12 12 14 15 16 17 17 17
23 22 28 34 32 31 35 34 31 32 32 31 34 31 20 10 6 4 4 4 1 6 20 22 11 8 11 13 19 26 23 21 24 24 22 21 20 21 23 24 24 24 22 22 22 22 21 20 21 22 21 19 17 17 15 13 11 10 9 10 12 14 15 16 17 17 18 20 19 16 15 14 13 13 13 13 13 12 13 14 15 16 17 17 17 17
23 21 25 31 30 26 31 31 26 28 28 28 30 30 28 22 12 5 5 7 4 3 9 8 6 11 17 16 18 22 22 24 26 25 24 22 20 21 22 22 23 22 21 22 20 19 17 17 19 20 19 18 17 15 13 12 11 10 9 11 13 15 17 18 18 17 18 19 17 15 14 13 12 13 14 14 14 14 14 15 16 16 17 17 16 16
21 21 22 27 27 25 29 30 27 26 23 25 29 32 33 27 15 6 7 11 7 3 3 7 12 16 18 15 18 22 24 27 27 27 27 24 23 23 22 21 22 22 22 22 18 16 16 17 19 19 18 17 15 13 12 12 11 10 10 12 15 17 17 17 18 16 16 17 15 14 14 13 13 14 15 14 14 14 15 15 15 15 15 15 16 15
20 20 24 29 25 22 28 32 33 27 18 24 34 33 29 23 18 13 6 7 6 3 3 9 16 22 18 12 19 25 26 28 29 29 29 26 24 23 22 22 22 23 23 21 18 17 18 19 19 18 17 16 14 12 12 11 10 9 11 13 15 17 17 17 17 16 15 16 16 14 14 15 15 15 15 14 14 14 14 14 14 14 14 15 16 16
20 17 21 32 31 23 25 28 34 33 23 23 30 30 26 18 17 18 7 3 7 3 2 8 15 21 19 16 24 29 28 29 30 29 28 26 24 23 22 21 21 21 21 19 19 19 19 19 19 18 16 14 13 12 10 9 9 10 11 12 14 16 16 17 16 15 14 15 16 16 16 16 15 15 15 15 15 15 14 14 14 15 16 16 17 18
22 16 12 26 31 24 25 29 35 37 30 24 23 28 32 22 17 24 17 8 9 4 3 6 8 11 16 16 20 26 29 28 28 27 27 25 25 24 22 19 19 19 18 19 19 19 20 20 19 17 14 13 11 9 8 8 9 11 12 12 13 15 16 16 15 14 14 15 16 16 16 16 15 15 16 16 16 16 16 16 16 16 17 18 19 19
25 22 13 19 29 28 29 35 38 37 32 28 25 28 34 26 18 21 22 18 13 5 4 5 2 7 17 16 15 21 27 28 28 28 28 27 27 25 20 18 19 19 19 20 20 21 22 21 18 15 13 12 10 8 8 9 10 11 12 12 13 14 15 14 14 14 14 14 15 16 16 16 16 16 16 17 17 18 18 18 19 19 19 20 20 20
24 27 21 20 31 35 32 32 35 33 30 29 27 27 30 29 22 13 11 19 20 10 8 8 3 7 18 19 17 21 25 27 28 28 28 29 27 23 19 19 21 22 21 21 21 22 21 19 15 14 13 11 10 9 9 10 11 12 12 12 13 14 14 14 14 14 15 14 15 15 16 16 16 16 17 18 18 19 20 20 21 21 21 21 22 21
23 25 25 21 25 34 29 22 25 29 30 28 27 28 27 28 30 18 6 12 20 14 10 10 5 8 19 23 23 23 24 25 27 28 28 28 25 20 19 20 21 21 21 21 21 20 17 15 14 14 13 12 11 11 11 12 12 12 12 13 13 14 14 14 14 15 15 15 15 16 16 17 17 18 18 19 20 21 21 21 22 22 22 22 23 23
23 20 23 21 18 27 28 20 20 25 29 28 27 31 30 26 30 28 14 9 15 15 13 10 3 8 22 24 24 25 25 25 26 27 26 23 21 20 20 21 21 20 20 20 20 18 16 16 16 15 15 13 12 12 12 11 12 12 12 13 13 13 14 15 15 15 15 16 16 16 17 18 18 19 19 20 21 22 22 23 23 24 24 24 24 24
25 18 20 17 10 17 22 17 20 26 31 32 27 27 31 26 24 29 27 16 11 13 18 12 4 11 24 26 26 27 27 26 25 24 21 17 16 20 21 21 21 21 20 20 20 19 18 17 17 15 14 13 12 11 12 11 11 12 13 13 13 14 15 15 15 15 16 16 17 17 18 19 19 20 21 21 23 24 24 25 25 26 25 25 25 24
25 20 18 14 5 8 12 11 18 29 32 33 29 23 27 28 23 25 31 26 13 9 18 14 10 20 26 25 27 28 28 28 26 24 20 14 13 18 20 19 20 20 19 19 19 17 16 15 14 13 12 11 11 12 12 12 12 13 13 13 13 14 15 15 15 15 16 17 18 18 19 20 20 21 23 24 25 26 27 27 28 27 26 26 26 26
25 22 21 17 7 6 13 12 16 24 28 32 32 26 24 28 29 24 23 24 19 13 15 13 17 28 32 30 31 32 31 29 28 25 19 14 15 17 18 18 18 18 17 16 16 15 14 13 12 12 11 11 12 13 13 12 12 13 13 12 12 13 15 15 15 16 17 18 19 20 21 22 23 24 25 26 26 27 28 28 28 28 27 27 27 27
24 22 24 23 11 5 13 16 14 19 26 31 32 27 21 23 31 31 21 15 17 14 12 16 22 27 34 36 34 34 33 31 29 24 17 14 15 16 16 16 15 15 15 14 14 13 13 12 12 12 12 12 12 12 12 12 12 12 12 12 12 13 14 15 16 17 18 19 20 22 23 24 25 25 26 26 27 28 28 28 28 28 29 29 29 30
25 22 25 28 18 9 12 14 10 11 19 27 32 28 22 21 26 32 27 18 15 14 13 20 24 23 31 36 34 33 33 31 29 23 16 15 15 14 12 11 11 12 12 12 12 12 12 12 12 12 12 11 11 11 12 12 11 11 13 13 13 14 15 16 17 17 18 20 21 22 23 24 25 26 27 27 28 28 28 29 29 30 30 31 32 33
23 20 23 28 21 13 12 10 6 7 9 18 28 27 23 23 23 24 24 22 18 14 14 21 26 25 29 34 35 35 33 30 27 22 17 16 14 13 11 9 8 10 11 11 12 12 12 12 11 10 10 10 10 11 11 11 11 12 13 13 14 15 16 17 18 19 19 21 21 22 23 24 25 26 27 28 28 28 28 29 30 31 31 32 33 33
20 15 18 25 20 10 12 10 8 11 6 11 17 18 17 20 19 16 17 20 18 12 15 26 31 32 32 34 35 35 33 31 27 21 18 17 15 14 10 7 8 9 10 11 12 12 12 11 10 9 9 9 9 10 10 10 11 12 12 13 14 15 16 17 18 19 20 20 21 23 24 25 25 26 26 27 28 28 28 28 29 30 30 31 31 32
21 14 13 20 18 9 10 11 9 11 8 7 12 12 11 14 15 13 12 11 12 15 24 31 32 32 33 34 35 34 33 30 25 21 20 19 17 14 10 8 8 8 8 9 9 10 10 9 8 8 8 8 8 8 8 9 10 10 11 12 14 15 16 17 18 20 21 21 21 22 23 24 24 24 24 25 26 27 27 27 27 28 28 29 30 31
24 22 15 15 15 10 10 12 10 9 6 4 8 12 13 12 14 16 14 11 6 10 18 23 22 22 26 31 33 33 31 28 25 23 22 21 19 15 11 9 8 7 8 8 9 9 8 8 8 7 6 6 6 6 7 8 8 9 11 12 14 15 16 17 18 19 19 19 19 19 20 20 20 21 21 22 23 25 26 26 27 27 28 28 30 30
25 24 17 14 14 11 11 13 9 6 4 3 7 11 14 14 14 15 16 16 13 10 10 10 11 14 19 26 29 30 29 27 25 24 23 22 19 16 13 11 9 7 8 9 9 8 7 7 7 6 5 5 5 6 7 7 7 9 10 11 12 13 14 15 15 16 15 15 15 15 16 17 17 19 20 20 21 23 25 26 27 28 28 28 29 31
24 21 16 15 15 11 13 14 7 2 3 5 7 10 13 14 14 15 17 18 16 14 11 9 9 10 15 21 27 29 29 29 27 26 26 23 18 14 12 10 7 7 9 9 8 8 7 6 6 5 4 4 4 4 5 5 6 7 8 9 10 10 11 11 11 11 11 11 11 12 14 15 16 17 18 19 20 21 23 25 26 27 27 28 29 30
19 19 17 15 12 10 13 12 6 4 7 8 8 9 12 15 15 15 17 19 19 17 14 12 11 10 13 18 25 29 30 30 29 28 27 23 17 13 9 7 8 9 9 8 8 8 7 6 5 4 4 3 3 3 4 4 5 6 6 6 7 7 7 7 7 8 9 10 10 11 13 14 15 16 17 18 19 21 22 24 25 26 27 28 29 30
15 18 19 16 11 11 14 12 8 9 10 11 12 12 14 16 16 16 15 17 18 17 16 16 14 13 14 17 22 28 30 31 31 30 27 22 18 14 11 10 10 9 9 8 8 7 7 6 5 5 4 3 2 3 3 3 3 3 2 2 3 3 5 6 7 8 10 10 11 12 13 14 15 16 17 18 19 21 22 23 24 26 27 28 29 30
14 16 21 18 11 13 16 13 7 6 8 16 20 18 17 18 16 16 15 14 17 19 19 19 18 17 17 18 21 26 29 31 32 30 27 24 20 16 14 13 11 10 10 9 7 7 7 7 6 6 4 2 2 2 1 0 1 2 3 3 4 5 6 7 8 9 11 11 12 13 14 14 15 16 17 18 19 21 22 23 24 25 27 28 29 30
18 15 17 18 14 16 18 11 5 4 7 17 23 21 20 20 18 17 14 15 20 22 21 23 23 21 21 19 20 23 27 31 32 30 26 24 20 17 16 14 11 11 11 8 7 8 8 7 7 5 3 2 2 2 3 4 5 5 5 5 6 6 7 8 9 11 12 13 14 15 15 16 17 18 18 19 20 21 22 24 24 25 26 27 28 29
20 17 15 17 17 19 17 10 5 4 6 13 21 22 22 22 21 16 10 15 24 26 24 25 25 24 24 22 22 23 24 24 24 24 25 23 18 18 17 13 11 12 11 8 8 8 8 8 7 4 3 2 4 5 6 7 7 6 7 7 8 8 9 10 11 13 14 15 16 16 17 17 19 20 20 21 21 22 23 24 25 26 26 27 28 29
19 16 14 17 19 18 17 11 6 5 8 13 17 20 22 21 20 17 13 15 22 25 24 25 25 24 24 22 22 23 23 19 17 20 23 21 19 19 17 13 13 13 10 8 8 8 9 8 5 4 4 6 7 8 7 7 8 8 8 9 9 10 11 12 13 14 15 16 17 18 18 19 20 20 21 22 23 23 25 26 27 28 28 28 28 28
17 16 14 16 17 17 17 12 7 6 11 15 15 18 21 19 18 19 17 13 15 19 22 24 24 22 20 21 22 23 24 23 22 21 21 20 20 19 16 14 15 13 10 9 10 10 9 7 5 6 8 9 9 9 8 9 9 10 10 11 11 12 13 13 14 16 16 17 18 18 18 19 20 20 21 23 23 24 25 26 27 29 29 30 29 29
17 17 15 15 17 17 17 12 7 6 13 19 18 19 21 20 16 17 16 12 12 17 18 20 21 21 21 21 22 23 26 27 26 23 21 21 21 19 16 15 14 12 10 10 11 10 8 7 7 10 11 10 10 10 10 10 10 10 11 12 13 13 14 14 15 17 18 18 18 19 19 19 21 22 23 24 24 25 25 26 27 28 29 30 30 30
19 19 17 17 16 16 15 12 7 9 15 20 20 20 23 22 17 16 17 15 16 19 18 18 19 20 18 17 19 24 28 28 26 25 24 23 21 18 17 16 14 12 11 12 11 10 9 9 11 12 12 11 11 10 10 10 10 11 12 13 14 15 15 14 16 18 18 18 19 20 21 21 22 24 24 24 25 25 25 26 27 28 29 30 30 31
16 15 18 19 16 14 14 13 11 13 16 18 18 19 22 22 18 18 18 16 16 18 19 18 18 17 16 16 20 27 29 27 27 27 24 22 20 18 17 15 13 12 12 12 12 11 12 13 13 13 13 12 11 11 11 11 11 12 13 14 14 14 14 14 15 17 18 18 19 20 22 22 23 24 25 25 25 25 26 27 28 29 30 31 31 32
12 11 13 17 16 14 13 13 13 16 16 16 16 17 20 21 19 17 17 16 16 17 19 18 17 17 18 21 24 27 28 27 28 26 22 20 19 17 15 14 13 13 13 13 13 14 15 15 14 14 13 12 11 11 12 12 12 13 13 13 13 14 13 13 14 16 17 17 18 19 21 22 22 23 24 25 25 25 26 27 28 29 30 31 32 33
13 11 10 14 16 16 15 15 15 17 17 16 16 16 18 20 19 17 16 16 16 17 17 15 14 17 21 23 25 26 27 27 26 24 21 20 18 16 15 15 15 14 14 15 16 17 16 15 15 15 14 13 12 12 12 12 12 12 12 12 12 12 12 12 13 15 16 16 17 18 20 21 22 23 23 24 25 26 26 27 28 29 29 30 31 32
14 11 10 14 17 16 16 18 18 18 17 17 17 16 16 17 18 17 16 16 15 14 14 14 16 20 23 25 25 25 27 26 24 23 22 20 17 15 16 17 16 15 16 18 18 17 16 16 16 15 14 14 13 12 11 11 11 11 10 10 10 11 11 12 12 14 15 16 16 18 19 20 22 22 23 23 24 25 27 27 28 28 29 30 31 32
11 11 13 17 19 17 17 19 19 18 17 17 17 16 15 16 17 16 16 16 15 15 17 19 21 22 23 24 25 25 26 26 24 23 21 19 17 15 16 17 17 17 18 19 18 17 17 16 15 15 14 13 13 12 10 9 9 9 8 9 9 10 10 11 11 13 14 15 16 17 18 19 20 21 23 24 25 26 27 27 28 29 29 30 31 32
7 9 12 16 17 16 15 16 17 15 13 14 16 15 14 16 17 17 17 17 17 19 23 24 24 25 24 22 23 24 24 24 23 22 19 17 16 16 17 18 20 20 19 19 17 17 17 16 15 15 14 12 11 10 8 8 7 7 7 8 8 9 9 10 11 12 13 14 15 16 17 18 19 20 22 24 25 26 27 27 28 29 29 30 31 32
8 9 11 11 10 11 11 12 14 14 11 12 13 14 14 17 18 18 18 18 20 24 25 23 24 27 26 24 24 23 22 22 22 20 17 15 16 18 20 21 21 21 20 19 18 17 17 16 15 14 12 11 10 8 7 6 6 5 6 6 7 8 9 10 11 12 12 13 14 15 16 18 19 20 21 23 24 26 26 26 28 29 28 28 30 31
Wind_Direction
180 190 203 210 211 214 211 201 204 208 203 210 215 215 221 225 226 227 214 196 178 174 184 198 202 178 155 159 168 172 172 182 185 179 188 187 172 172 180 198 219 228 230 231 230 219 210 205 186 180 174 162 164 162 156 150 138 123 93 73 51 24 3 350 346 342 340 340 338 338 344 346 344 350 356 352 351 348 335 335 340 336 332 328 325 321
188 204 209 211 210 212 210 200 199 211 215 221 228 224 222 228 233 231 208 187 175 177 184 193 193 175 167 163 166 178 171 168 174 174 181 181 167 166 174 194 219 220 218 218 216 212 207 200 191 191 188 176 166 161 156 144 139 124 30 355 346 343 341 335 335 336 333 332 332 332 335 340 340 344 353 354 353 352 341 335 335 332 331 330 331 328
200 212 210 207 210 207 205 204 204 216 224 231 241 245 244 235 237 245 212 183 174 179 184 189 180 168 172 172 163 173 176 171 177 179 179 180 175 170 172 187 211 215 214 214 211 209 205 201 199 199 197 194 193 197 198 243 259 280 309 313 319 321 326 327 329 331 327 325 326 326 328 331 334 339 349 352 350 349 343 334 327 321 318 318 322 324
203 211 209 207 210 202 198 206 211 218 228 233 240 248 254 241 238 244 202 178 173 178 185 186 173 163 170 178 171 166 174 176 180 185 181 181 184 184 189 198 211 217 215 213 211 209 203 200 201 206 209 210 218 237 239 250 260 276 292 297 305 311 316 319 322 323 318 318 318 318 320 322 324 332 342 345 343 342 339 332 322 312 308 307 311 316
208 210 207 204 206 201 198 204 211 220 230 236 239 241 243 240 244 233 180 169 170 173 187 184 164 155 171 177 180 179 182 187 188 193 189 185 192 197 206 215 222 224 216 209 209 207 205 202 201 209 215 217 228 239 243 252 261 273 283 289 298 306 312 317 318 315 311 310 311 311 313 314 318 324 331 334 334 334 330 326 321 312 308 306 306 309
212 212 207 201 199 200 203 207 210 218 228 236 239 234 231 235 247 229 172 166 168 163 180 186 162 129 176 176 181 189 193 199 200 205 205 203 206 206 213 220 227 233 222 210 209 208 208 205 203 209 212 219 230 237 243 253 264 274 283 290 298 305 311 316 313 309 307 306 307 309 309 309 314 317 319 322 322 321 319 317 315 311 310 308 306 307
208 208 211 204 198 199 206 212 210 213 225 233 233 226 230 239 247 246 182 169 174 166 171 193 187 146 182 185 182 190 197 204 209 214 217 222 224 220 219 219 224 231 224 215 216 216 215 214 214 216 218 224 230 237 245 253 262 272 282 290 298 303 307 308 306 303 302 302 305 308 309 308 311 314 315 316 313 311 310 307 306 307 307 307 308 310
205 201 209 205 199 201 208 213 208 208 222 228 228 227 238 246 244 257 227 185 180 169 167 195 199 171 182 200 194 195 203 210 214 216 220 227 232 229 226 222 222 225 222 219 222 223 223 225 227 225 227 231 235 241 247 253 262 273 283 289 294 298 299 300 300 298 296 299 304 306 307 308 309 312 314 314 312 308 305 304 304 306 308 309 311 315
202 199 204 203 200 204 209 211 205 206 220 223 224 232 240 248 243 255 253 199 177 166 165 186 199 182 181 201 203 209 215 217 217 218 222 228 232 231 229 226 223 223 223 220 222 226 227 230 232 232 233 236 242 247 250 258 268 276 282 287 291 294 295 295 294 292 294 298 303 305 306 307 309 312 315 314 311 307 306 307 309 312 313 312 313 315
204 200 201 203 205 207 208 210 207 204 218 220 217 227 234 243 243 251 254 196 173 173 177 179 188 184 165 191 197 207 216 216 216 219 225 229 230 230 230 228 226 225 225 223 225 227 230 233 235 235 237 240 246 251 255 262 269 276 280 285 289 290 290 291 291 293 298 300 303 306 306 308 311 312 313 311 308 306 305 307 312 315 316 314 314 316
209 202 201 206 210 210 206 208 209 206 215 216 208 218 232 242 242 248 250 211 176 191 197 185 187 190 161 187 194 203 214 217 218 222 225 227 229 229 228 229 229 229 230 229 229 229 232 234 236 237 238 241 246 251 256 262 269 275 278 280 282 284 285 287 291 295 300 302 303 303 305 308 311 310 308 304 302 301 302 306 311 314 317 318 319 320
211 204 202 206 209 210 206 207 209 207 210 208 208 218 233 245 239 237 239 227 207 222 210 197 198 204 176 186 195 203 214 218 222 229 230 230 230 226 225 227 229 231 230 230 230 231 234 236 237 238 238 240 244 248 253 258 264 267 269 271 273 278 284 288 295 300 302 302 302 302 304 308 310 308 305 300 299 299 301 306 309 311 317 320 321 321
216 210 202 203 204 202 203 206 205 206 207 205 211 219 223 235 225 222 232 207 185 236 214 202 202 203 125 171 190 200 210 213 218 232 239 240 237 230 226 227 228 228 227 228 229 231 237 240 239 237 235 237 240 243 248 251 254 257 259 265 272 281 289 292 298 301 301 302 303 305 308 311 312 309 307 305 303 303 303 304 306 311 317 320 320 319
217 217 207 202 204 201 200 201 197 201 208 207 211 215 208 177 182 208 210 148 189 214 192 193 195 170 123 154 183 197 204 203 211 226 236 241 243 237 233 230 227 225 223 226 229 232 240 243 239 233 230 231 233 235 239 238 241 247 253 266 279 288 291 293 296 298 298 299 301 307 311 313 313 310 310 310 308 307 303 302 306 312 316 317 317 315
209 217 210 202 206 205 199 200 197 199 208 209 211 215 216 218 211 192 163 149 180 162 168 179 182 157 146 148 177 191 191 193 207 221 227 233 240 240 238 238 235 231 227 229 232 235 240 238 232 227 224 223 224 225 227 229 236 246 258 274 284 289 291 294 298 299 298 299 302 307 309 311 313 311 310 312 311 308 305 305 309 313 314 315 316 315
210 219 209 197 204 203 193 197 198 197 204 206 208 216 222 226 223 188 176 183 168 129 153 140 106 140 145 148 175 187 188 196 206 215 222 229 235 239 242 245 246 243 237 236 236 235 233 226 220 217 215 214 214 215 219 227 239 251 267 279 284 288 292 296 299 302 301 303 306 308 308 308 308 308 310 313 312 310 309 310 311 313 315 317 320 321
210 217 203 191 203 210 198 197 195 194 201 199 204 216 219 221 225 198 181 189 171 81 128 110 103 134 139 146 177 185 191 200 205 212 222 229 233 238 242 244 247 247 241 236 232 227 222 218 213 209 206 205 207 212 219 230 244 259 275 282 285 289 294 297 300 303 302 302 305 306 304 303 302 305 310 311 310 308 309 311 312 315 318 321 324 327
201 207 205 195 193 198 195 195 196 200 201 195 203 217 216 218 229 217 181 178 173 103 145 140 137 152 154 157 181 189 195 201 206 215 223 227 230 235 239 239 239 241 239 233 222 216 214 212 207 203 202 203 206 215 225 239 256 273 280 283 289 292 296 299 300 302 302 300 301 302 300 300 301 305 308 307 306 307 308 310 312 315 318 321 323 326
196 197 204 194 186 184 186 195 205 207 205 203 209 214 210 210 217 208 192 155 172 137 105 141 149 168 178 176 184 194 201 203 210 218 224 227 230 233 234 236 235 235 231 221 211 208 206 204 202 202 203 207 212 221 232 250 266 275 280 283 288 292 295 298 301 303 301 298 298 299 299 300 303 304 304 304 304 305 307 308 311 313 315 317 318 321
199 193 187 187 191 197 195 202 214 213 209 215 216 208 207 212 209 202 204 193 174 152 121 150 159 190 199 195 194 197 199 204 211 217 223 227 228 231 232 231 231 228 219 209 203 201 201 202 204 205 208 213 218 226 239 258 270 275 281 283 285 289 293 297 301 300 295 294 295 297 298 299 301 301 299 300 301 302 303 305 307 309 310 312 314 316
200 198 191 183 191 199 199 201 211 215 215 220 222 209 205 211 206 199 206 204 187 152 120 144 174 209 200 204 213 205 201 207 215 219 222 224 224 228 229 225 224 221 213 206 201 200 203 205 206 207 212 216 219 230 244 258 268 272 276 280 282 285 289 292 294 291 290 292 293 294 296 296 296 296 296 297 298 299 301 302 304 305 307 308 309 311
199 199 205 194 186 191 199 202 207 216 219 221 226 221 210 206 198 184 200 206 199 188 166 160 162 192 189 190 195 202 206 210 216 221 223 223 224 224 222 220 220 215 210 206 204 205 206 207 207 208 214 219 223 234 246 254 260 265 269 274 278 280 284 287 287 287 289 291 291 291 291 291 292 293 294 296 297 298 300 300 301 302 303 305 306 308
201 201 212 214 192 188 196 206 211 216 218 218 226 228 220 213 206 199 185 192 197 197 174 160 150 168 181 184 181 190 205 212 217 223 226 227 226 221 217 219 217 211 209 209 209 210 208 206 209 212 217 225 232 239 247 253 258 264 270 276 280 282 284 287 288 290 291 291 290 289 289 290 291 293 294 295 296 297 298 298 299 300 301 302 304 306
199 197 205 214 202 190 196 210 215 216 216 219 226 225 220 218 213 214 218 196 198 199 167 140 107 168 174 182 185 189 202 215 222 226 230 234 229 218 214 215 213 207 206 209 211 210 208 208 212 217 223 232 238 244 251 256 261 267 272 278 282 284 286 288 290 291 291 290 289 288 289 291 292 292 293 295 296 298 300 301 301 301 302 302 303 304
196 196 194 196 191 187 194 205 207 207 214 222 228 224 219 218 212 214 220 225 236 213 177 149 110 168 173 181 190 195 203 215 225 230 232 235 227 215 210 206 205 204 204 209 211 211 211 213 217 225 233 239 243 247 251 253 258 265 271 276 281 283 286 288 290 291 290 290 290 290 292 293 294 295 296 298 301 302 303 303 303 302 302 301 301 301
199 203 193 187 178 176 187 196 197 198 208 222 229 225 219 216 210 207 209 217 235 195 170 165 152 157 167 181 189 196 207 214 223 231 229 219 210 205 201 197 199 202 205 211 215 215 216 220 224 231 235 235 236 242 246 250 256 264 271 278 282 285 288 290 292 292 291 291 292 294 295 295 297 298 299 301 302 303 304 303 302 301 300 299 298 299
201 208 202 198 204 195 197 205 205 202 208 219 224 226 222 214 213 211 205 211 219 185 157 176 179 163 164 179 189 197 209 216 219 226 223 205 194 193 193 195 197 201 206 212 217 218 217 218 221 225 226 225 231 241 246 249 256 265 273 280 284 286 289 290 291 291 292 293 295 296 297 297 298 299 301 303 303 303 304 303 301 300 299 298 298 297
197 203 206 204 211 223 208 209 214 212 213 217 222 230 232 216 212 218 223 222 215 200 168 174 183 175 172 182 192 198 206 215 218 220 215 198 194 195 196 200 202 205 209 212 216 218 214 213 215 218 222 225 232 240 246 250 258 266 274 280 284 287 288 289 290 291 292 294 295 296 296 297 299 300 301 303 303 304 304 303 301 300 300 300 300 300
197 198 202 204 211 230 216 209 215 216 212 215 219 227 234 226 214 218 230 233 218 224 216 184 181 184 181 184 195 200 204 212 216 215 206 197 202 208 206 207 210 213 214 212 212 212 207 206 209 214 221 226 232 241 248 256 263 269 275 281 284 286 288 289 291 293 295 295 296 297 298 299 300 302 302 303 304 304 304 303 303 303 303 304 304 304
194 188 192 201 210 225 218 215 249 255 214 199 206 216 226 227 218 214 223 228 222 233 225 186 173 177 181 185 192 197 202 209 211 207 199 196 205 211 207 206 208 209 207 201 199 200 200 203 206 214 224 232 239 247 255 263 269 273 278 282 284 287 289 291 293 296 297 297 299 300 300 301 302 303 304 304 305 305 305 305 305 306 306 306 306 307
191 175 183 198 205 218 221 226 264 264 226 164 176 193 206 209 208 207 216 220 213 193 173 170 167 167 177 187 191 195 201 205 205 201 195 198 205 202 197 202 206 204 201 197 196 198 201 205 209 217 227 237 245 252 259 266 271 275 280 284 287 289 291 292 295 296 297 298 300 301 301 302 303 304 305 305 305 305 306 307 307 307 307 308 308 308
201 188 182 197 202 202 208 218 247 251 227 154 144 149 165 182 181 176 180 195 205 181 162 166 170 169 176 187 192 197 202 204 203 200 197 202 202 195 196 209 210 207 206 203 200 200 201 205 209 215 224 234 243 251 259 266 273 281 286 288 289 290 292 295 296 297 298 300 302 303 303 304 305 306 306 306 307 307 308 309 310 310 310 310 309 309
200 198 183 187 196 186 185 202 220 229 216 132 119 124 137 165 174 165 146 126 159 184 164 165 174 177 180 186 191 196 200 201 201 198 202 207 200 191 197 212 219 223 218 209 203 200 199 200 205 212 220 231 245 253 262 272 280 285 286 287 289 291 294 297 298 299 302 304 307 307 307 308 309 310 310 312 314 314 313 312 312 313 313 313 311 311
186 191 179 175 187 179 175 188 198 217 213 129 132 142 147 166 184 173 148 129 135 155 152 153 171 181 186 191 193 194 193 195 196 195 201 207 203 199 209 224 235 228 203 195 195 195 195 197 205 214 221 235 251 260 269 279 281 281 283 286 290 294 297 300 302 305 308 311 315 315 315 317 318 318 319 321 322 320 317 315 315 315 315 315 313 312
177 178 171 172 184 180 172 178 180 217 195 144 152 163 154 161 179 173 153 147 153 161 164 169 174 179 187 193 195 191 188 190 192 195 200 203 202 206 218 228 225 201 186 186 189 191 195 200 209 218 226 242 255 261 272 279 279 282 286 290 295 298 302 308 313 317 321 328 333 330 328 331 332 330 331 330 329 326 323 321 321 319 319 318 317 315
187 181 176 166 170 171 162 164 174 177 164 155 165 173 164 168 184 184 166 162 168 172 177 186 185 179 181 186 190 192 192 192 191 194 200 202 198 198 203 199 187 183 185 187 187 191 198 204 212 216 217 225 239 254 273 284 285 287 291 297 305 310 319 332 338 340 347 354 354 347 343 343 342 340 340 339 335 331 329 328 327 325 324 324 322 321
203 197 192 173 160 169 158 144 145 155 161 175 179 179 184 187 194 200 190 177 177 180 184 192 194 189 188 187 189 193 196 197 193 191 195 197 192 189 185 178 177 181 184 184 186 193 198 200 201 200 198 204 229 261 281 288 287 295 313 327 342 358 7 11 5 3 8 7 3 359 355 352 351 349 349 347 341 337 336 335 333 331 330 329 327 326
195 203 202 191 175 169 156 135 133 162 187 195 188 183 192 195 196 204 205 197 195 195 193 193 193 195 201 202 198 196 196 196 195 195 195 191 186 184 181 177 181 186 184 180 182 186 190 190 185 183 189 205 240 264 262 192 114 98 88 75 57 41 31 27 21 20 22 19 16 15 9 5 4 2 360 357 351 346 344 342 340 338 336 334 333 331
182 187 195 195 182 168 158 141 144 196 207 203 196 189 189 193 194 198 204 206 204 201 197 192 191 195 205 212 212 205 199 196 197 198 194 186 182 183 183 184 191 191 182 174 174 179 183 182 177 181 201 212 199 178 139 121 112 105 97 82 66 54 46 43 37 35 35 31 28 26 20 15 14 12 9 7 2 356 352 349 347 345 342 340 338 337
185 181 180 179 171 169 168 160 161 177 187 201 203 196 190 193 192 186 194 211 205 200 198 197 196 199 207 215 218 211 205 202 201 196 189 184 183 184 184 187 191 186 180 177 178 179 178 177 180 192 207 177 149 139 128 118 111 103 91 80 71 64 58 54 49 44 41 38 36 34 27 21 21 18 14 14 10 4 0 357 354 352 349 347 344 342
184 185 177 167 164 171 176 167 156 171 175 186 201 204 198 196 193 189 200 215 208 203 205 207 207 209 210 213 213 205 198 197 198 193 189 188 187 184 182 185 186 183 182 183 178 175 174 178 190 191 165 146 137 131 123 113 104 96 88 81 76 70 63 59 55 50 46 44 42 40 34 27 25 22 18 18 15 10 6 3 0 358 357 354 351 348
179 180 169 156 153 164 173 163 149 173 178 177 191 205 201 196 198 201 207 218 214 208 210 209 208 206 200 199 201 193 184 184 190 193 194 191 188 185 184 187 188 186 185 181 175 174 176 180 184 162 145 137 133 126 117 107 98 92 88 83 77 71 65 62 61 58 54 50 48 47 42 34 31 29 24 22 20 15 11 9 5 2 1 359 356 354
183 179 168 149 141 149 157 155 154 187 190 186 190 199 197 194 198 199 197 196 191 190 194 195 190 186 183 186 188 181 177 181 186 192 194 189 186 187 186 186 188 189 186 179 172 172 175 172 159 146 136 132 129 120 110 103 97 92 90 86 80 74 68 66 66 62 57 54 53 53 49 41 37 36 31 27 23 19 15 13 10 7 5 3 1 358
180 181 177 166 154 153 157 161 179 198 195 193 194 197 194 190 190 190 187 184 177 173 177 182 181 181 184 185 180 175 176 181 184 188 190 187 185 185 184 186 191 189 182 175 171 169 167 158 148 139 133 130 125 116 109 106 102 97 93 88 83 77 71 67 66 62 57 52 50 52 51 45 39 37 33 29 25 21 18 16 13 11 8 6 4 2
172 180 186 182 174 172 176 182 187 185 187 193 195 193 193 192 191 189 188 190 187 182 185 193 196 197 197 191 181 175 176 179 182 184 187 187 185 185 185 188 192 186 177 174 173 168 160 151 143 136 133 130 125 120 117 112 106 101 95 90 85 79 72 66 62 59 54 47 44 45 46 44 40 35 32 29 25 23 20 16 14 12 10 7 5 4
172 170 184 186 180 178 181 186 185 179 183 196 198 194 197 202 202 197 193 192 193 190 191 198 205 206 198 187 177 174 176 179 180 181 184 186 188 189 189 189 186 179 174 173 170 163 155 147 140 136 134 131 128 126 121 114 108 102 95 90 84 77 70 61 55 53 51 45 40 38 38 40 38 34 30 27 25 23 20 16 14 12 10 6 4 3
167 159 170 181 180 175 170 172 182 186 188 201 207 203 202 204 204 203 198 190 188 190 191 192 192 191 185 176 171 174 178 179 179 179 183 189 193 193 189 186 180 175 172 168 163 158 152 145 140 138 137 134 131 126 120 116 110 102 93 86 79 72 65 56 49 47 45 42 38 35 32 32 32 31 29 26 23 21 19 16 13 11 9 6 4 3
163 162 172 178 177 179 176 176 186 194 193 201 211 213 211 204 198 199 197 190 188 188 182 172 172 176 173 166 167 177 180 178 179 183 187 191 195 191 184 180 178 174 167 162 158 154 149 144 141 140 139 137 133 128 122 117 107 96 88 79 70 63 57 51 46 42 39 37 34 32 29 27 25 24 24 23 21 19 17 14 12 11 8 6 4 3
172 172 178 177 173 176 181 185 192 197 197 202 207 212 216 207 196 192 190 186 183 178 168 163 165 167 165 162 167 178 182 178 180 186 189 190 192 189 180 173 171 168 161 157 156 152 148 144 142 140 139 138 134 127 120 111 98 88 79 68 60 54 46 42 40 38 35 33 30 26 26 26 23 19 18 18 17 16 15 13 11 10 8 6 6 5
183 176 178 183 183 185 191 198 201 202 206 209 205 201 205 201 191 186 185 181 175 170 167 166 162 159 160 163 169 177 181 180 182 188 191 188 186 183 175 169 166 163 157 154 154 152 149 144 142 141 141 139 133 124 114 102 86 74 65 54 49 44 36 32 32 31 30 30 27 23 21 21 20 17 16 15 13 11 11 10 10 10 9 6 7 7
194 184 175 180 192 199 202 204 202 203 213 219 206 190 186 186 183 181 180 177 172 169 169 167 162 159 161 165 169 176 184 187 187 189 190 186 180 174 170 167 164 159 155 154 155 153 148 144 143 143 142 139 131 121 108 93 76 61 51 42 37 34 29 26 24 24 24 25 24 21 19 18 16 15 16 14 10 9 9 7 6 9 10 7 8 9
Height
3090 3091 3090 3090 3092 3096 3100 3103 3105 3108 3109 3110 3112 3113 3113 3114 3113 3114 3118 3120 3124 3126 3127 3131 3135 3137 3136 3134 3136 3138 3138 3139 3138 3137 3138 3142 3145 3147 3149 3150 3151 3152 3153 3154 3155 3157 3157 3158 3158 3158 3159 3160 3161 3162 3164 3165 3165 3166 3166 3166 3167 3167 3167 3168 3168 3168 3168 3169 3169 3170 3170 3171 3170 3169 3169 3169 3169 3169 3168 3166 3166 3167 3167 3168 3168 3168
3087 3085 3085 3088 3092 3096 3100 3103 3105 3106 3106 3107 3110 3111 3112 3112 3110 3112 3115 3118 3122 3124 3126 3130 3134 3134 3132 3133 3135 3136 3136 3136 3136 3137 3139 3142 3144 3146 3148 3149 3150 3151 3152 3154 3154 3155 3156 3157 3157 3157 3158 3159 3160 3161 3163 3164 3165 3165 3165 3166 3166 3167 3167 3167 3167 3167 3168 3168 3168 3168 3169 3170 3170 3169 3168 3168 3168 3168 3168 3167 3167 3166 3166 3166 3166 3165
3082 3081 3083 3089 3092 3096 3099 3102 3104 3103 3104 3105 3107 3109 3110 3110 3109 3110 3114 3116 3119 3121 3124 3127 3129 3130 3130 3132 3133 3135 3136 3136 3136 3137 3140 3142 3143 3145 3147 3148 3149 3150 3152 3153 3154 3155 3156 3156 3156 3157 3158 3160 3161 3162 3163 3163 3164 3164 3164 3165 3166 3166 3166 3166 3166 3167 3167 3167 3167 3167 3168 3168 3168 3168 3167 3167 3167 3167 3167 3167 3167 3166 3165 3164 3164 3163
3077 3078 3084 3089 3092 3095 3098 3100 3102 3102 3102 3103 3104 3107 3107 3107 3107 3108 3110 3114 3117 3118 3120 3123 3125 3127 3129 3130 3131 3134 3137 3136 3136 3138 3140 3141 3142 3143 3145 3147 3149 3150 3151 3152 3153 3154 3155 3155 3156 3157 3158 3159 3160 3161 3162 3162 3163 3163 3164 3164 3165 3165 3166 3165 3166 3166 3166 3166 3166 3166 3166 3167 3167 3166 3166 3166 3165 3165 3165 3166 3166 3166 3165 3163 3162 3162
3076 3078 3084 3088 3090 3093 3095 3097 3100 3100 3099 3100 3102 3104 3104 3103 3105 3107 3108 3111 3116 3117 3116 3118 3123 3126 3128 3129 3130 3133 3135 3136 3136 3137 3139 3140 3141 3142 3144 3146 3148 3150 3150 3151 3152 3153 3154 3155 3156 3157 3158 3159 3160 3161 3161 3162 3162 3163 3163 3164 3164 3165 3165 3165 3165 3165 3165 3165 3165 3165 3165 3165 3165 3165 3165 3165 3164 3164 3164 3164 3164 3164 3163 3162 3161 3160
3077 3080 3083 3086 3088 3091 3092 3094 3096 3097 3098 3098 3099 3100 3101 3100 3103 3108 3110 3110 3113 3114 3114 3115 3121 3128 3129 3128 3130 3132 3133 3135 3136 3137 3138 3139 3139 3141 3143 3145 3147 3149 3149 3150 3151 3152 3153 3154 3155 3156 3157 3158 3159 3160 3160 3161 3162 3162 3163 3164 3164 3164 3164 3164 3164 3164 3164 3164 3163 3163 3163 3163 3164 3164 3164 3163 3163 3163 3162 3162 3162 3162 3161 3161 3160 3158
3076 3079 3081 3083 3085 3088 3090 3091 3092 3096 3097 3096 3096 3098 3099 3099 3100 3106 3110 3110 3108 3110 3113 3114 3117 3125 3129 3128 3129 3131 3133 3134 3135 3136 3137 3137 3138 3140 3142 3144 3146 3147 3148 3149 3151 3152 3153 3153 3154 3155 3156 3157 3158 3159 3160 3160 3161 3162 3163 3163 3163 3163 3163 3163 3163 3163 3163 3162 3162 3162 3162 3162 3162 3162 3162 3162 3161 3161 3161 3160 3160 3159 3159 3158 3158 3156
3072 3077 3079 3080 3083 3085 3086 3087 3089 3093 3095 3093 3094 3097 3098 3098 3098 3102 3107 3108 3107 3107 3111 3112 3113 3120 3125 3127 3129 3130 3131 3133 3134 3135 3136 3137 3138 3139 3141 3143 3145 3146 3147 3149 3150 3151 3151 3152 3153 3154 3155 3156 3157 3158 3159 3160 3160 3161 3162 3162 3163 3162 3162 3162 3162 3162 3161 3161 3161 3161 3160 3160 3160 3160 3159 3159 3159 3158 3158 3158 3157 3157 3156 3155 3154 3153
3070 3073 3075 3078 3080 3081 3082 3084 3088 3091 3092 3092 3095 3096 3096 3097 3097 3101 3104 3105 3104 3105 3108 3110 3111 3117 3121 3123 3126 3128 3129 3131 3132 3133 3135 3135 3136 3138 3140 3141 3143 3145 3147 3148 3149 3150 3150 3151 3152 3153 3154 3155 3156 3157 3158 3159 3160 3160 3161 3161 3161 3161 3160 3160 3160 3160 3160 3160 3159 3159 3159 3158 3158 3157 3157 3156 3156 3155 3155 3155 3154 3154 3153 3152 3151 3150
3069 3070 3074 3077 3077 3078 3080 3084 3087 3089 3090 3093 3096 3095 3095 3096 3098 3101 3102 3101 3102 3103 3104 3106 3108 3113 3120 3120 3121 3124 3125 3127 3130 3132 3133 3134 3135 3136 3138 3139 3141 3143 3145 3146 3147 3148 3149 3150 3151 3152 3153 3154 3155 3156 3157 3158 3158 3159 3159 3160 3160 3159 3159 3159 3158 3158 3159 3158 3158 3158 3157 3157 3156 3155 3154 3153 3152 3152 3152 3152 3152 3151 3150 3150 3148 3147
3068 3070 3073 3074 3074 3076 3080 3083 3085 3087 3090 3094 3095 3094 3095 3095 3097 3100 3101 3100 3102 3101 3100 3104 3106 3110 3116 3118 3117 3118 3120 3123 3126 3129 3131 3132 3133 3134 3135 3136 3138 3140 3142 3144 3145 3146 3147 3149 3150 3151 3152 3153 3154 3155 3156 3157 3157 3158 3158 3158 3158 3158 3158 3157 3157 3157 3157 3157 3156 3156 3155 3154 3153 3153 3152 3151 3150 3149 3149 3149 3149 3149 3148 3147 3146 3145
3066 3068 3069 3070 3073 3076 3079 3082 3084 3086 3089 3092 3092 3093 3095 3094 3094 3098 3099 3100 3102 3100 3099 3103 3106 3107 3112 3115 3116 3117 3118 3121 3125 3127 3128 3130 3131 3132 3133 3133 3135 3137 3139 3141 3142 3143 3145 3146 3148 3150 3151 3152 3153 3154 3155 3155 3156 3157 3157 3157 3157 3156 3156 3156 3156 3156 3155 3155 3154 3153 3152 3152 3151 3150 3149 3149 3148 3147 3147 3147 3147 3146 3145 3145 3144 3142
3062 3064 3066 3068 3071 3074 3076 3078 3081 3083 3086 3088 3089 3091 3094 3093 3093 3096 3096 3098 3100 3099 3100 3103 3105 3107 3110 3112 3114 3116 3117 3121 3124 3125 3127 3128 3129 3130 3131 3131 3133 3135 3137 3139 3140 3141 3142 3144 3146 3148 3149 3150 3151 3153 3154 3154 3155 3155 3156 3156 3155 3155 3155 3155 3155 3154 3153 3152 3151 3151 3150 3149 3148 3148 3147 3146 3146 3145 3145 3145 3144 3144 3143 3142 3141 3140
3059 3062 3064 3065 3067 3070 3072 3074 3076 3078 3080 3084 3085 3086 3090 3091 3092 3094 3095 3097 3099 3098 3099 3102 3104 3108 3110 3111 3113 3114 3116 3120 3123 3124 3125 3127 3128 3128 3129 3129 3131 3134 3136 3137 3138 3139 3140 3141 3143 3146 3147 3148 3150 3151 3152 3152 3153 3153 3154 3153 3153 3153 3154 3153 3153 3152 3151 3150 3149 3149 3148 3147 3147 3146 3145 3144 3144 3143 3143 3142 3142 3141 3140 3140 3139 3138
3055 3057 3057 3060 3063 3065 3069 3070 3073 3076 3079 3082 3083 3085 3087 3088 3090 3092 3092 3095 3098 3098 3099 3101 3104 3107 3110 3112 3112 3113 3116 3119 3121 3122 3124 3125 3126 3126 3127 3128 3130 3132 3134 3135 3136 3137 3138 3140 3142 3144 3145 3146 3148 3149 3150 3150 3151 3151 3151 3151 3151 3151 3151 3151 3151 3150 3149 3148 3147 3147 3146 3145 3145 3144 3143 3142 3141 3141 3141 3140 3139 3138 3138 3137 3136 3135
3053 3053 3054 3059 3061 3064 3067 3070 3073 3077 3078 3080 3083 3084 3083 3085 3088 3089 3089 3092 3095 3097 3099 3101 3105 3108 3110 3112 3113 3114 3116 3117 3118 3120 3122 3123 3124 3125 3126 3127 3128 3130 3132 3133 3135 3136 3137 3139 3140 3142 3143 3144 3145 3147 3148 3148 3149 3149 3149 3150 3149 3149 3149 3149 3148 3148 3147 3146 3146 3145 3144 3143 3143 3142 3141 3140 3139 3139 3138 3138 3137 3136 3135 3134 3134 3133
3051 3052 3055 3058 3060 3062 3065 3068 3071 3073 3075 3078 3080 3078 3079 3084 3088 3088 3088 3091 3093 3097 3102 3103 3105 3109 3110 3112 3114 3114 3115 3116 3116 3118 3119 3121 3122 3123 3125 3126 3127 3129 3130 3132 3133 3135 3136 3137 3139 3140 3141 3142 3143 3145 3145 3146 3147 3147 3148 3147 3147 3147 3147 3147 3146 3146 3145 3144 3143 3143 3142 3142 3141 3140 3139 3138 3138 3137 3136 3136 3135 3134 3133 3132 3131 3131
3050 3052 3054 3056 3059 3061 3064 3067 3069 3070 3072 3074 3074 3075 3080 3086 3087 3086 3087 3090 3092 3096 3103 3105 3105 3107 3109 3110 3112 3113 3113 3114 3115 3116 3117 3119 3121 3122 3124 3125 3126 3127 3129 3131 3132 3133 3135 3136 3138 3139 3140 3141 3142 3143 3144 3144 3145 3145 3145 3145 3145 3145 3145 3144 3144 3144 3143 3142 3141 3141 3140 3139 3139 3138 3137 3136 3136 3135 3135 3134 3133 3132 3132 3131 3130 3128
3049 3051 3052 3054 3057 3060 3064 3067 3067 3067 3068 3071 3073 3077 3081 3082 3082 3083 3086 3088 3090 3095 3102 3106 3105 3105 3106 3106 3108 3110 3111 3112 3113 3113 3115 3117 3119 3121 3122 3124 3125 3126 3128 3130 3131 3132 3134 3135 3136 3137 3138 3139 3140 3141 3142 3142 3142 3143 3144 3144 3143 3142 3142 3142 3142 3142 3141 3140 3139 3139 3138 3138 3137 3136 3135 3134 3134 3133 3133 3132 3132 3131 3130 3129 3128 3127
3048 3049 3050 3053 3056 3059 3062 3064 3063 3063 3065 3069 3074 3076 3077 3078 3079 3080 3082 3085 3088 3092 3099 3105 3106 3105 3104 3105 3106 3108 3109 3110 3111 3112 3113 3115 3117 3118 3120 3122 3123 3125 3127 3128 3130 3131 3132 3133 3135 3136 3137 3138 3139 3140 3140 3140 3141 3141 3142 3142 3141 3140 3140 3140 3140 3139 3139 3138 3138 3137 3137 3136 3135 3134 3133 3133 3132 3132 3131 3130 3130 3129 3128 3127 3126 3125
3047 3047 3048 3052 3055 3057 3057 3057 3058 3061 3065 3067 3069 3072 3073 3076 3077 3079 3080 3082 3084 3087 3093 3101 3104 3102 3101 3104 3105 3107 3108 3109 3110 3111 3112 3113 3114 3116 3119 3121 3122 3124 3126 3127 3128 3129 3130 3131 3133 3135 3136 3137 3137 3137 3138 3139 3139 3140 3140 3140 3140 3139 3138 3138 3138 3138 3137 3137 3137 3136 3135 3134 3134 3133 3132 3132 3131 3130 3129 3128 3128 3127 3126 3125 3124 3122
3045 3045 3047 3050 3051 3052 3053 3056 3060 3063 3065 3066 3067 3069 3071 3073 3075 3076 3078 3079 3081 3084 3088 3093 3098 3098 3099 3102 3104 3106 3107 3108 3109 3110 3110 3111 3113 3115 3118 3120 3121 3123 3125 3126 3127 3127 3128 3130 3132 3133 3134 3134 3134 3135 3136 3137 3138 3138 3138 3138 3138 3137 3137 3137 3137 3136 3136 3136 3135 3135 3134 3133 3132 3131 3131 3130 3129 3128 3127 3126 3125 3124 3123 3122 3121 3120
3044 3044 3047 3048 3048 3050 3054 3058 3060 3062 3065 3067 3067 3068 3069 3071 3072 3073 3075 3077 3080 3082 3084 3087 3092 3096 3099 3100 3102 3105 3106 3107 3108 3108 3108 3110 3112 3115 3117 3119 3120 3122 3124 3125 3126 3126 3128 3129 3130 3130 3131 3131 3132 3133 3135 3135 3136 3136 3137 3136 3136 3136 3135 3135 3135 3135 3135 3134 3134 3133 3132 3131 3131 3130 3129 3128 3127 3126 3125 3124 3122 3121 3121 3119 3118 3117
3043 3043 3045 3047 3049 3052 3055 3058 3059 3061 3064 3064 3064 3065 3067 3068 3069 3071 3075 3077 3078 3080 3082 3086 3092 3096 3098 3100 3102 3103 3104 3105 3106 3107 3108 3109 3112 3114 3116 3118 3120 3122 3123 3124 3124 3125 3126 3127 3127 3128 3129 3130 3131 3132 3134 3134 3135 3135 3135 3135 3134 3134 3134 3134 3134 3134 3133 3132 3132 3131 3130 3129 3129 3128 3126 3126 3124 3123 3122 3121 3120 3119 3118 3116 3115 3114
3039 3041 3043 3046 3048 3051 3054 3056 3056 3057 3059 3059 3060 3063 3065 3067 3069 3072 3075 3077 3078 3078 3079 3084 3091 3095 3096 3099 3101 3101 3103 3104 3104 3105 3107 3109 3111 3113 3114 3116 3119 3120 3121 3122 3122 3123 3124 3125 3126 3126 3128 3129 3130 3131 3132 3133 3133 3133 3133 3133 3133 3133 3132 3133 3133 3132 3132 3131 3130 3129 3128 3127 3126 3125 3124 3123 3122 3121 3119 3118 3117 3116 3115 3113 3112 3111
3037 3039 3041 3044 3045 3047 3048 3050 3050 3052 3055 3057 3058 3061 3064 3066 3068 3070 3072 3075 3077 3077 3078 3081 3086 3091 3095 3097 3098 3099 3100 3101 3103 3104 3106 3108 3110 3112 3114 3116 3117 3119 3120 3120 3121 3122 3123 3124 3125 3126 3127 3128 3129 3130 3131 3131 3131 3131 3131 3132 3132 3131 3131 3131 3131 3130 3130 3129 3128 3127 3126 3125 3124 3123 3122 3120 3119 3118 3117 3115 3114 3113 3112 3110 3109 3108
3037 3038 3040 3042 3044 3045 3047 3049 3051 3054 3055 3056 3057 3059 3062 3065 3067 3069 3071 3072 3074 3076 3077 3078 3080 3086 3091 3094 3095 3097 3098 3099 3101 3102 3104 3108 3110 3112 3113 3115 3116 3118 3119 3119 3120 3121 3122 3123 3123 3124 3126 3126 3127 3128 3129 3129 3129 3129 3130 3130 3130 3130 3129 3129 3129 3128 3127 3127 3126 3125 3124 3123 3122 3120 3119 3118 3116 3115 3114 3112 3111 3110 3108 3107 3106 3105
3036 3037 3040 3042 3045 3046 3048 3051 3053 3054 3054 3055 3057 3059 3061 3064 3066 3068 3069 3071 3073 3075 3075 3076 3077 3080 3085 3089 3091 3093 3095 3097 3099 3101 3105 3108 3109 3111 3112 3113 3115 3116 3117 3118 3119 3120 3121 3122 3122 3123 3124 3125 3126 3127 3127 3128 3128 3128 3128 3128 3128 3128 3128 3127 3127 3126 3125 3125 3124 3123 3122 3120 3119 3118 3116 3115 3114 3112 3111 3109 3108 3106 3105 3104 3103 3101
3035 3037 3039 3042 3044 3046 3048 3050 3051 3052 3053 3055 3057 3059 3061 3063 3064 3066 3067 3069 3071 3072 3072 3074 3076 3077 3081 3085 3088 3090 3093 3095 3098 3101 3105 3107 3108 3110 3111 3112 3114 3114 3115 3117 3118 3119 3120 3120 3121 3122 3123 3124 3125 3125 3126 3126 3126 3126 3126 3126 3127 3126 3126 3125 3124 3124 3123 3123 3122 3120 3119 3118 3117 3115 3114 3112 3111 3109 3108 3106 3105 3103 3102 3100 3099 3097
3034 3036 3038 3041 3043 3045 3047 3049 3049 3050 3052 3053 3055 3058 3060 3061 3062 3064 3065 3066 3068 3070 3071 3072 3075 3078 3080 3083 3086 3089 3092 3094 3097 3101 3104 3106 3107 3108 3110 3111 3112 3113 3114 3116 3117 3118 3119 3119 3120 3121 3122 3123 3123 3124 3124 3124 3124 3125 3125 3125 3125 3124 3124 3123 3122 3122 3121 3120 3119 3118 3117 3115 3114 3112 3111 3109 3108 3107 3105 3103 3102 3100 3098 3097 3095 3093
3033 3035 3038 3040 3043 3045 3047 3048 3049 3050 3050 3051 3053 3055 3057 3058 3059 3061 3063 3063 3065 3068 3070 3072 3075 3078 3081 3084 3086 3089 3091 3093 3096 3100 3104 3105 3106 3107 3109 3110 3111 3112 3114 3115 3116 3117 3118 3119 3120 3121 3121 3122 3122 3123 3123 3123 3123 3123 3123 3123 3123 3123 3122 3121 3121 3120 3119 3118 3117 3116 3114 3113 3111 3110 3108 3107 3105 3104 3102 3101 3099 3097 3095 3094 3092 3090
3032 3035 3037 3039 3042 3045 3047 3048 3050 3050 3050 3051 3052 3053 3054 3055 3056 3058 3061 3062 3064 3066 3070 3073 3075 3076 3079 3082 3085 3088 3090 3093 3096 3100 3103 3104 3105 3107 3108 3109 3111 3112 3114 3115 3116 3117 3118 3119 3119 3120 3120 3120 3121 3121 3121 3121 3121 3121 3121 3121 3121 3121 3120 3120 3119 3118 3117 3116 3115 3113 3112 3110 3109 3108 3106 3105 3103 3101 3099 3098 3096 3094 3093 3091 3088 3086
3031 3034 3037 3039 3042 3045 3047 3049 3050 3050 3050 3051 3052 3053 3054 3054 3055 3057 3060 3063 3065 3067 3070 3073 3074 3075 3077 3080 3083 3086 3090 3093 3096 3099 3101 3102 3104 3106 3107 3109 3111 3113 3114 3115 3115 3116 3117 3118 3118 3118 3119 3119 3119 3119 3119 3120 3120 3120 3119 3119 3119 3119 3118 3118 3117 3116 3115 3114 3112 3111 3109 3108 3107 3105 3104 3103 3101 3099 3097 3095 3093 3092 3090 3088 3085 3083
3030 3033 3036 3039 3042 3044 3046 3047 3050 3050 3051 3052 3053 3053 3054 3055 3056 3058 3061 3065 3067 3069 3071 3072 3074 3075 3078 3080 3082 3085 3089 3092 3095 3098 3100 3101 3104 3105 3107 3109 3111 3113 3114 3114 3115 3115 3116 3116 3117 3117 3118 3118 3118 3118 3118 3118 3118 3118 3118 3118 3117 3117 3116 3115 3115 3114 3113 3112 3110 3109 3107 3106 3105 3103 3102 3101 3099 3097 3094 3093 3091 3089 3087 3085 3083 3081
3029 3032 3036 3039 3041 3044 3045 3047 3050 3052 3052 3052 3053 3054 3055 3057 3058 3060 3064 3066 3068 3070 3071 3072 3073 3075 3078 3080 3083 3087 3089 3091 3094 3096 3098 3100 3103 3105 3107 3109 3111 3112 3113 3114 3114 3114 3115 3115 3116 3116 3116 3116 3116 3116 3116 3117 3116 3116 3116 3116 3116 3115 3114 3114 3113 3112 3111 3110 3109 3107 3106 3105 3103 3102 3101 3099 3098 3095 3093 3091 3089 3087 3085 3083 3080 3078
3029 3032 3035 3038 3041 3043 3046 3048 3050 3053 3053 3053 3053 3054 3056 3058 3060 3062 3063 3065 3067 3068 3070 3072 3073 3075 3077 3080 3084 3087 3088 3089 3092 3094 3096 3099 3103 3105 3107 3109 3111 3112 3112 3113 3113 3114 3114 3114 3115 3115 3115 3115 3115 3115 3115 3115 3115 3115 3115 3115 3114 3114 3113 3112 3111 3110 3110 3109 3108 3106 3105 3103 3102 3101 3099 3098 3096 3094 3092 3090 3087 3085 3083 3081 3079 3076
3028 3031 3034 3037 3040 3043 3046 3048 3051 3053 3053 3053 3053 3054 3056 3058 3059 3061 3062 3064 3066 3067 3069 3071 3072 3074 3076 3079 3082 3084 3086 3088 3090 3093 3096 3099 3102 3104 3106 3108 3110 3111 3111 3112 3112 3112 3113 3113 3113 3113 3114 3114 3114 3114 3114 3114 3114 3114 3114 3114 3113 3113 3112 3111 3110 3109 3109 3108 3107 3105 3104 3102 3101 3100 3098 3097 3094 3092 3091 3089 3086 3084 3082 3080 3077 3075
3028 3030 3032 3036 3040 3043 3045 3049 3052 3053 3051 3050 3051 3053 3055 3057 3058 3060 3061 3062 3064 3066 3067 3069 3071 3073 3075 3077 3079 3081 3084 3087 3089 3092 3095 3098 3100 3103 3105 3107 3109 3109 3109 3110 3111 3111 3111 3112 3112 3112 3112 3113 3113 3113 3113 3113 3113 3113 3113 3113 3112 3112 3111 3110 3109 3109 3108 3107 3106 3104 3103 3102 3100 3099 3097 3096 3093 3091 3089 3087 3085 3083 3081 3078 3076 3073
3029 3031 3033 3035 3039 3043 3045 3048 3050 3050 3049 3049 3051 3053 3055 3056 3058 3060 3060 3060 3062 3064 3065 3067 3070 3072 3074 3076 3078 3079 3081 3084 3087 3090 3093 3097 3099 3102 3104 3106 3107 3108 3108 3109 3109 3109 3110 3110 3111 3111 3112 3112 3112 3112 3112 3112 3112 3113 3112 3112 3112 3111 3110 3110 3109 3108 3107 3106 3105 3104 3102 3101 3100 3098 3097 3095 3093 3090 3088 3086 3084 3082 3080 3077 3075 3072
3030 3032 3034 3035 3037 3041 3044 3046 3047 3047 3047 3048 3050 3052 3054 3055 3057 3059 3058 3057 3059 3062 3064 3066 3069 3071 3073 3075 3077 3078 3080 3083 3086 3090 3093 3097 3099 3101 3104 3105 3106 3106 3107 3107 3108 3108 3109 3109 3110 3110 3111 3111 3111 3111 3111 3112 3112 3112 3112 3111 3111 3110 3110 3109 3108 3107 3106 3106 3105 3103 3102 3100 3099 3097 3096 3094 3092 3090 3087 3085 3083 3081 3079 3077 3074 3071
3031 3033 3035 3036 3037 3040 3042 3043 3044 3045 3046 3047 3049 3051 3053 3054 3056 3056 3055 3056 3059 3062 3064 3066 3068 3070 3073 3075 3076 3078 3081 3085 3089 3091 3094 3096 3098 3100 3102 3104 3104 3105 3106 3106 3107 3107 3108 3109 3109 3110 3110 3110 3110 3111 3111 3111 3112 3111 3111 3111 3110 3110 3109 3108 3107 3107 3106 3105 3104 3103 3101 3100 3098 3097 3095 3093 3091 3089 3087 3085 3082 3080 3078 3076 3073 3071
3031 3033 3035 3036 3037 3038 3040 3042 3044 3045 3045 3046 3048 3049 3051 3053 3053 3053 3055 3057 3059 3061 3063 3065 3067 3070 3071 3073 3075 3078 3081 3086 3089 3091 3094 3096 3098 3100 3101 3102 3103 3104 3105 3105 3106 3106 3107 3108 3108 3109 3109 3110 3110 3110 3111 3111 3111 3111 3111 3110 3110 3109 3109 3108 3107 3107 3106 3105 3104 3102 3101 3100 3098 3096 3095 3093 3091 3089 3087 3084 3082 3079 3077 3075 3072 3070
3029 3031 3033 3035 3036 3038 3040 3042 3043 3044 3044 3044 3045 3047 3048 3051 3052 3053 3056 3057 3057 3059 3062 3064 3066 3068 3069 3071 3074 3078 3081 3085 3087 3090 3093 3095 3097 3099 3100 3101 3102 3103 3103 3104 3104 3105 3106 3107 3108 3108 3109 3109 3109 3110 3110 3110 3110 3110 3110 3110 3109 3109 3108 3108 3107 3106 3106 3105 3104 3103 3101 3100 3098 3096 3094 3092 3090 3088 3086 3084 3082 3079 3077 3074 3072 3069
3028 3029 3030 3033 3035 3037 3038 3040 3041 3041 3042 3043 3044 3045 3047 3049 3051 3053 3055 3056 3057 3059 3061 3063 3065 3067 3069 3072 3075 3077 3080 3084 3086 3090 3092 3094 3096 3098 3098 3099 3100 3101 3102 3103 3104 3104 3105 3106 3108 3108 3108 3109 3109 3110 3110 3110 3110 3110 3110 3110 3109 3109 3108 3108 3107 3106 3105 3105 3104 3102 3101 3099 3097 3095 3093 3092 3090 3088 3086 3084 3082 3079 3077 3074 3072 3069
3027 3028 3030 3031 3033 3035 3037 3038 3039 3039 3041 3042 3043 3045 3047 3049 3051 3052 3054 3056 3057 3059 3060 3062 3064 3065 3069 3072 3074 3076 3080 3083 3086 3089 3091 3093 3095 3096 3097 3098 3099 3100 3101 3102 3103 3104 3105 3106 3107 3108 3108 3108 3109 3110 3110 3110 3110 3110 3110 3110 3109 3109 3109 3108 3107 3106 3105 3104 3103 3101 3100 3098 3096 3095 3093 3091 3089 3088 3086 3084 3081 3079 3076 3074 3071 3068
3027 3029 3030 3031 3033 3035 3037 3038 3038 3039 3040 3041 3043 3045 3046 3048 3050 3052 3054 3055 3057 3058 3059 3061 3063 3065 3067 3070 3073 3076 3080 3083 3085 3088 3090 3092 3093 3095 3096 3097 3098 3099 3100 3101 3102 3103 3105 3106 3107 3107 3108 3109 3109 3110 3110 3110 3110 3110 3110 3110 3109 3109 3108 3108 3107 3105 3104 3103 3102 3100 3099 3098 3096 3094 3092 3091 3089 3087 3085 3083 3081 3078 3076 3073 3071 3068
3027 3029 3030 3031 3032 3034 3036 3038 3038 3039 3040 3041 3042 3043 3045 3047 3049 3051 3053 3054 3056 3057 3058 3060 3063 3065 3067 3069 3073 3076 3079 3082 3085 3088 3089 3090 3092 3094 3095 3096 3097 3098 3099 3101 3102 3103 3105 3106 3107 3107 3108 3109 3110 3110 3110 3110 3110 3110 3110 3110 3109 3109 3108 3107 3106 3105 3104 3103 3101 3100 3099 3097 3096 3094 3093 3091 3089 3087 3085 3082 3080 3078 3076 3073 3070 3068
3027 3028 3030 3031 3032 3033 3035 3036 3037 3038 3040 3041 3041 3042 3044 3045 3047 3049 3051 3053 3055 3056 3058 3061 3063 3065 3067 3069 3073 3077 3080 3083 3085 3087 3088 3089 3091 3093 3094 3095 3096 3098 3099 3100 3102 3103 3104 3106 3107 3108 3109 3109 3110 3110 3110 3110 3110 3110 3110 3110 3109 3109 3108 3107 3106 3105 3104 3103 3102 3100 3098 3097 3095 3094 3092 3091 3089 3086 3084 3082 3080 3078 3075 3073 3070 3067
3027 3028 3029 3030 3031 3033 3034 3035 3036 3037 3039 3040 3041 3042 3043 3044 3046 3048 3050 3052 3054 3056 3058 3060 3063 3065 3068 3070 3073 3077 3080 3082 3084 3085 3087 3088 3090 3091 3093 3094 3096 3097 3098 3100 3102 3103 3105 3106 3107 3108 3109 3109 3110 3110 3110 3110 3110 3110 3110 3110 3109 3109 3108 3107 3106 3105 3104 3103 3102 3100 3099 3097 3095 3093 3092 3090 3088 3086 3084 3082 3080 3077 3075 3072 3070 3067
3028 3028 3029 3030 3031 3032 3033 3034 3035 3036 3037 3038 3040 3041 3042 3044 3046 3048 3050 3051 3054 3056 3058 3059 3062 3066 3069 3072 3074 3077 3079 3081 3083 3084 3086 3088 3089 3090 3092 3094 3095 3097 3098 3100 3102 3103 3105 3106 3107 3108 3109 3109 3110 3110 3110 3110 3110 3110 3110 3109 3109 3109 3108 3107 3106 3105 3104 3103 3102 3100 3099 3097 3095 3094 3091 3089 3087 3085 3083 3081 3079 3077 3075 3072 3070 3068
3027 3028 3029 3030 3031 3032 3033 3034 3035 3036 3037 3037 3038 3040 3042 3043 3046 3048 3050 3052 3054 3056 3058 3060 3062 3065 3068 3071 3075 3077 3079 3080 3082 3084 3085 3087 3088 3090 3092 3093 3095 3097 3099 3100 3102 3103 3105 3106 3107 3108 3109 3109 3110 3110 3110 3110 3110 3110 3110 3109 3109 3108 3108 3107 3106 3105 3104 3103 3101 3100 3099 3097 3095 3094 3092 3090 3088 3085 3083 3081 3079 3077 3075 3073 3070 3068